Location: Epalinges
(46.5518°N, 6.6683°E)
Time: 15:04:24
(UTC+00:00)

Cosmos 841 Rocket - Pass Details

Date: 20 June 2021
Orbit: 747 x 772 km, 74.0° (Epoch: 31 July)

Event Time Altitude Azimuth Distance (km) Brightness Sun altitude
Exits shadow 00:22:55 27° 148° (SSE) 1,402 4.5 -19.2°
Maximum altitude 00:24:55 38° 103° (ESE) 1,126 4.3 -19.1°
Drops below altitude 10° 00:29:39 10° 36° (NE) 2,273 7.0 -18.9°
Sets 00:32:08 0° 29° (NNE) 3,201 8.2 -18.8°
